"Pseudo-MPEC" for C15PC35

Created 2025 Oct 20 23:35:03 UT using Find_Orb

Click here for an explanation of pseudo-MPECs

 
 Astrometry: 
     C15PC35  C2024 12 03.57695508 06 13.494-11 04 24.20   ~AJDK 22.20GVNEOCPF51
     C15PC35  C2024 12 03.58771308 06 12.341-11 04 25.31   ~AJDK 21.94GVNEOCPF51
     C15PC35  C2024 12 03.59830508 06 11.192-11 04 26.71   ~AJDK 22.55GVNEOCPF51
     C15PC35  C2024 12 03.60869708 06 10.074-11 04 27.33   ~AJDK 22.24GVNEOCPF51
     C15PC35  C2025 01 24.29345006 00 49.478-06 28 33.77   ~AJDK 21.87GVNEOCPF51
     C15PC35  C2025 01 24.30763906 00 47.447-06 28 23.74   ~AJDK 21.69GVNEOCPF51
     C15PC35  C2025 01 29.28617505 49 18.405-05 26 59.24   ~AJDK 21.21GVNEOCPF51
     C15PC35  C2025 01 29.29867805 49 16.712-05 26 49.96   ~AJDK 20.67GVNEOCPF51
     C15PC35  C2025 01 29.31117705 49 15.022-05 26 40.34   ~AJDK 21.77GVNEOCPF51
     C15PC35  C2025 01 29.35569305 49 09.053-05 26 06.70   ~AJDK 21.90GVNEOCPF51
     C15PC35  C2025 02 22.23765805 07 12.017-00 22 57.01   ~AJDK 22.63GVNEOCPF52
     C15PC35  C2025 02 22.25007205 07 11.026-00 22 47.72   ~AJDK 22.67GVNEOCPF52
     C15PC35  C2025 02 22.26243205 07 10.062-00 22 38.70   ~AJDK 22.17GVNEOCPF52
     C15PC35  C2025 02 22.27472605 07 09.096-00 22 29.70   ~AJDK 22.64GVNEOCPF52
     C15PC35  C2025 02 25.25492105 03 28.032+00 13 24.80   ~AJDK 22.37GVNEOCPF51
     C15PC35  C2025 02 25.26689305 03 27.157+00 13 33.17   ~AJDK 22.48GVNEOCPF51
     C15PC35  C2025 02 25.27883405 03 26.301+00 13 41.62   ~AJDK 22.84GVNEOCPF51
     C15PC35  C2025 08 23.60832404 43 06.597+18 00 37.87   ~AJCK 23.48GVNEOCPF51
     C15PC35  C2025 08 23.61241204 43 06.450+18 00 38.37   ~AJCK 22.95GVNEOCPF51
     C15PC35  C2025 08 23.61650304 43 06.304+18 00 38.98   ~AJCK 23.06GVNEOCPF51
     C15PC35  C2025 08 23.62059404 43 06.125+18 00 39.18   ~AJCKx22.00GVNEOCPF51
     C15PC35  C2025 08 30.60832304 38 05.870+18 21 08.33   ~AJCK 22.72GVNEOCPF52
     C15PC35  C2025 08 30.61596504 38 05.461+18 21 09.83   ~AJCK 22.34GVNEOCPF52
     C15PC35  C2025 08 30.61979604 38 05.269+18 21 10.24   ~AJCK 23.13GVNEOCPF52
     C15PC35  C2025 09 05.57485204 32 42.575+18 37 40.72   ~AJCK 22.78GVNEOCPF51
     C15PC35  C2025 09 05.58853104 32 41.754+18 37 42.66   ~AJCK 22.67GVNEOCPF51
     C15PC35  C2025 09 05.60224604 32 40.902+18 37 44.91   ~AJCK 23.55GVNEOCPF51
     C15PC35  C2025 09 20.52580004 14 01.671+19 12 34.16   ~AJCK 22.30GVNEOCPF52
     C15PC35  C2025 09 20.53853004 14 00.496+19 12 35.74   ~AJCK 22.43GVNEOCPF52
     C15PC35  C2025 09 20.55125904 13 59.330+19 12 37.17   ~AJCK 21.82GVNEOCPF52
     C15PC35* C2025 10 01.44352503 55 13.170+19 27 35.60   ~A1BZ 22.26GVNEOCPV00
     C15PC35  C2025 10 01.44911503 55 12.522+19 27 35.78   ~A1BZ 22.50GVNEOCPV00
     C15PC35  C2025 10 01.45469903 55 11.860+19 27 36.14   ~A1BZ 22.50GVNEOCPV00
     C15PC35  C2025 10 01.46029203 55 11.204+19 27 36.43   ~A1BZ 21.58GVNEOCPV00
     C15PC35  C2025 10 01.49141003 55 07.580+19 27 38.40   ~A1CZ 22.4 RVNEOCP691
     C15PC35 KC2025 10 01.49363303 55 07.316+19 27 37.94   ~A1Co 22.36GVNEOCPV06
     C15PC35 KC2025 10 01.50226203 55 06.316+19 27 38.30   ~A1Co 22.13GVNEOCPV06
     C15PC35  C2025 10 01.50238003 55 06.290+19 27 38.60   ~A1CZ 22.3 RVNEOCP691
     C15PC35 KC2025 10 01.51088903 55 05.311+19 27 38.59   ~A1Co 22.14GVNEOCPV06
     C15PC35 KC2025 10 02.34048903 53 28.795+19 28 15.02   ~A29K 22.35GVNEOCPV06
     C15PC35 KC2025 10 02.34604803 53 28.136+19 28 15.24   ~A29K 22.24GVNEOCPV06
     C15PC35 KC2025 10 02.35160903 53 27.481+19 28 15.53   ~A29K 22.35GVNEOCPV06
     C15PC35 KC2025 10 02.35717003 53 26.826+19 28 15.74   ~A29K 22.24GVNEOCPV06
     C15PC35  C2025 10 02.45328403 53 15.552+19 28 20.21   ~AJCK 21.59GVNEOCPF52
     C15PC35  C2025 10 02.46612403 53 14.031+19 28 20.77   ~AJCK 22.07GVNEOCPF52
     C15PC35  C2025 10 02.47899703 53 12.518+19 28 21.28   ~AJCK 22.20GVNEOCPF52
     C15PC35  C2025 10 02.49186503 53 10.991+19 28 21.82   ~AJCK 22.18GVNEOCPF52
     C15PC35  C2025 10 03.30891003 51 34.090+19 28 51.30   ~A38Z 22.4 RVNEOCP291
     C15PC35  C2025 10 03.32627003 51 32.030+19 28 51.40   ~A38Z 22.2 RVNEOCP291
     C15PC35  C2025 10 04.26800003 49 38.540+19 29 19.70   ~A47o 21.7 RVNEOCP291
     C15PC35  C2025 10 04.28862003 49 36.040+19 29 19.70   ~A47o 22.4 RVNEOCP291
     C15PC35 KC2025 10 04.37176903 49 25.77 +19 29 21.9    ~A49Z 22.3 GVNEOCPH21
     C15PC35 KC2025 10 04.37754303 49 25.03 +19 29 22.1    ~A49Z 22.2 GVNEOCPH21
     C15PC35 KC2025 10 16.24480 03 23 06.55 +19 23 38.3    ~AKNZ 21.1 GXNEOCPW62
     C15PC35 KC2025 10 16.26294 03 23 03.94 +19 23 36.9    ~AKNZ 21.0 GXNEOCPW62
     C15PC35  C2025 10 16.41921203 22 41.683+19 23 24.46   ~AJCK 21.34GVNEOCPF52
     C15PC35  C2025 10 16.44466903 22 37.978+19 23 21.86   ~AJCK 22.12GVNEOCPF52
     C15PC35  C2025 10 19.23702003 15 53.040+19 18 28.90   ~AJ7Z 19.8 RVNEOCP691
     C15PC35  C2025 10 19.25417003 15 50.570+19 18 27.10   ~AJ7Z 22.0 RVNEOCP691
     C15PC35  C2025 10 19.27131003 15 48.070+19 18 25.10   ~AJ7Z 21.7 RVNEOCP691
     C15PC35  C2025 10 20.17676603 13 34.810+19 16 31.90   ~AK75 22.0 RVNEOCP691
     C15PC35  C2025 10 20.20578003 13 30.510+19 16 28.40   ~AK75 21.5 RVNEOCP691

Station data:
(291) LPL/Spacewatch II  (N31.961669 W111.599905)  US/Arizona.  Observers J.
   V. Scotti, R. S. McMillan. 1.8-m f/2.7 reflector + CCD.
(691) Steward Observatory, Kitt Peak - Spacewatch  (N31.962174 W111.600327)
   US/Arizona.  Observer J. V. Scotti. 0.9-m f/3 reflector + CCD.
(F51) Pan-STARRS 1, Haleakala  (N20.707234 W156.255910)  US/Hawaii.
   Observers J. Herman, T. Lowe, P. Minguez, A. Schultz, I. Smith. Measurers
   K. Chambers, T. de Boer, J. Fairlamb, H. Gao, M. Huber, C.-C. Lin, E.
   Magnier, Y. Ramanjooloo, R. Wainscoat, R. Weryk. 1.8-m Ritchey-Chrétien +
   CCD.
(F52) Pan-STARRS 2, Haleakala  (N20.707382 W156.255910)  US/Hawaii.
   Observers J. Herman, T. Lowe, P. Minguez, A. Schultz, I. Smith. Measurers
   K. Chambers, T. de Boer, J. Fairlamb, H. Gao, M. Huber, C.-C. Lin, E.
   Magnier, Y. Ramanjooloo, R. Wainscoat, R. Weryk. 1.8-m Ritchey-Chrétien +
   CCD.
(H21) Astronomical Research Observatory, Westfield  (N39.483054 W87.968270)
   US/Illinois.  Observer R. Holmes. Measurers S. Foglia, L. Buzzi, T.
   Linder, R. Holmes. 0.40-m f/5.32 astrograph + CCD.
(V00) Kitt Peak-Bok  (N31.963125 W111.600190)  US/Arizona. Measurers T.
   Beuden, V. F. Carvajal, D. Fay, J. B. Fazekas, D. C. Fuls, A. R. Gibbs, A.
   D. Grauer, H. Gröller, J. K. Hogan, R. A. Kowalski, S. M. Larson, G. J.
   Leonard, D. Rankin, R. L. Seaman, F. C. Shelly, K. W. Wierzchoś. 2.25-m
   reflector + 4x4K mosaic CCD.
(V06) Catalina Sky Survey-Kuiper  (N32.416871 W110.732550)  US/Arizona.
   Measurers T. Beuden, V. F. Carvajal, D. Fay, J. B. Fazekas, D. C. Fuls, A.
   R. Gibbs, A. D. Grauer, H. Gröller, J. K. Hogan, R. A. Kowalski, S. M.
   Larson, G. J. Leonard, D. Rankin, R. L. Seaman, F. C. Shelly, K. W.
   Wierzchoś. 1.55-m reflector + CCD.
(W62) Comet Hunter Observatory2, New Ringgold  (N40.745185 W75.862390)
   US/Pennsylvania.  Observer J. Maikner. 0.30-m f/3.8 Riccardi-Honders + CCD.

Orbital elements:  C15PC35
   Perihelion 2025 Apr 27.886284 +/- 0.000722 TT = 21:16:14.9 (JD 2460793.386284)
Epoch 2025 Oct 20.0 TT = JDT 2460968.5   Ne: 0.4648              AutoNEOCP
M   0.698942415 +/- 0.000059        (J2000 ecliptic)
n   0.003991363 +/- 3.49e-7         Peri.  324.182506 +/- 0.00014
a  39.36001250 +/- 0.00229          Node    46.458898 +/- 0.000031
e   0.91728825 +/- 4.75e-6          Incl.  152.813891 +/- 0.000020
P 246.93511                H 16.68  G  0.15   U  2.8
q 3.255535281 +/- 2.9e-6    Q 75.46448972 +/- 0.00459
61 of 62 observations 2024 Dec. 3-2025 Oct. 20; mean residual 0".19
Residuals in arcseconds: 
241203 F51  .01-  .06-    250830 F52  .19+  .13-    251002 V06  .01+  .14-    
241203 F51  .09+  .08-    250830 F52  .22-  .05+    251002 F52  .20-  .06-    
241203 F51  .00   .40-    250830 F52  .23-  .21-    251002 F52  .16-  .06-    
241203 F51  .04+  .03+    250905 F51  .02-  .10+    251002 F52  .07+  .10-    
250124 F51  .40-  .13+    250905 F51  .11+  .20-    251002 F52  .11+  .11-    
250124 F51  .09-  .08-    250905 F51  .15-  .18-    251003 291  .15-  .28+    
250129 F51  .25+  .22+    250920 F52  .04-  .11-    251003 291  .27+  .26-    
250129 F51  .10+  .07+    250920 F52  .07-  .00     251004 291  .12-  .49+    
250129 F51  .02-  .26+    250920 F52  .05+  .04-    251004 291  .16+  .14-    
250129 F51  .26+  .28+    251001 V00  .09+  .08-    251004 H21  .11+  .02+    
250222 F52  .04-  .17-    251001 V00  .15+  .16-    251004 H21  .32-  .08+    
250222 F52  .25-  .05+    251001 V00  .00   .06-    251016 W62  .03+  .12-    
250222 F52  .13-  .04+    251001 V00  .05-  .04-    251016 W62  .06+  .06+    
250222 F52  .12-  .06+    251001 691  .06+  .49+    251016 F52  .23+  .50+    
250225 F51  .28+  .08+    251001 V06  .03+  .04-    251016 F52  .17-  .10+    
250225 F51  .09+  .11-    251001 V06  .13+  .07-    251019 691  1.0-  .16-    
250225 F51  .15+  .21-    251001 691  .07-  .20+    251019 691  .17-  .02+    
250823 F51  .03+  .18+    251001 V06  .16+  .17-    251019 691  .28+  .01+    
250823 F51  .16+  .07-    251002 V06  .08-  .13-    251020 691  .09+  .07+    
250823 F51  .30+  .21-    251002 V06  .10-  .15-    251020 691  .13+  .18+    
250823 F51( .02-  .75-)   251002 V06  .04-  .11-    

Ephemerides (geocentric):
Date (UTC) HH   RA             Dec           delta  r     elong  mag " sig PA
---- --------  ------------   ------------  ------ ------ -----  --- --------
2025 10 21 00  03 11 32.679   +19 14 42.86  2.6875 3.6237 156.8 22.1 .029  74
2025 10 21 01  03 11 26.489   +19 14 37.09  2.6874 3.6238 156.8 22.1 .029  74
2025 10 21 02  03 11 20.298   +19 14 31.30  2.6872 3.6240 156.9 22.1 .029  74
2025 10 21 03  03 11 14.105   +19 14 25.49  2.6871 3.6242 156.9 22.1 .029  74
2025 10 21 04  03 11 07.911   +19 14 19.66  2.6869 3.6243 157.0 22.1 .029  74
2025 10 21 05  03 11 01.715   +19 14 13.81  2.6867 3.6245 157.1 22.1 .030  74
